When you browse on this site, cookies collect data to enhance your experience and personalize the content and advertising you see.
Visit our Privacy Policy to learn more. By continuing to use the site, you agree to this use of cookies and data.
  • In Hungary
  • List of Countries
  • For 7 days
  • Water Temperature
  • Satellite Maps
  • Weather Map
  • News
  • Weather Widgets
  • user-avatar
    Login

    Hourly Weather Suss

    Today, 24 April, Wednesday

    Time Temperature Precipitation Wind Pressure Humidity
    00:00 +23°C° 0 mm 2 mps 756 mmHg 40%
    01:00 +21°C° 0 mm 2 mps 757 mmHg 47%
    02:00 +21°C° 0 mm 2 mps 757 mmHg 49%
    03:00 +21°C° 0 mm 1 mps 757 mmHg 52%
    04:00 +21°C° 0 mm 1 mps 757 mmHg 54%
    05:00 +21°C° 0 mm 1 mps 757 mmHg 53%
    06:00 +21°C° 0 mm 1 mps 757 mmHg 51%
    07:00 +22°C° 0 mm 1 mps 757 mmHg 49%
    08:00 +23°C° 0 mm 1 mps 757 mmHg 44%
    09:00 +25°C° 0 mm 2 mps 757 mmHg 38%
    10:00 +27°C° 0 mm 3 mps 758 mmHg 32%
    11:00 +27°C° 0 mm 4 mps 758 mmHg 32%
    12:00 +28°C° 0 mm 5 mps 758 mmHg 31%
    13:00 +29°C° 0 mm 5 mps 758 mmHg 30%
    14:00 +28°C° 0 mm 6 mps 758 mmHg 34%
    15:00 +27°C° 0 mm 6 mps 758 mmHg 37%
    16:00 +26°C° 0 mm 6 mps 758 mmHg 41%
    17:00 +24°C° 0 mm 6 mps 758 mmHg 47%
    18:00 +22°C° 0 mm 6 mps 758 mmHg 52%
    19:00 +21°C° 0 mm 7 mps 759 mmHg 58%
    20:00 +20°C° 0 mm 6 mps 759 mmHg 60%
    21:00 +20°C° 0 mm 6 mps 760 mmHg 63%
    22:00 +20°C° 0 mm 6 mps 760 mmHg 66%
    23:00 +19°C° 0 mm 5 mps 760 mmHg 68%

    Tomorrow, 25 April, Thursday

    Time Temperature Precipitation Wind Pressure Humidity
    00:00 +19°C° 0 mm 5 mps 760 mmHg 70%
    01:00 +19°C° 0 mm 4 mps 760 mmHg 72%
    02:00 +18°C° 0 mm 4 mps 760 mmHg 72%
    03:00 +18°C° 0 mm 3 mps 760 mmHg 73%
    04:00 +18°C° 0 mm 3 mps 760 mmHg 73%
    05:00 +18°C° 0 mm 3 mps 760 mmHg 71%
    06:00 +19°C° 0 mm 3 mps 760 mmHg 69%
    07:00 +19°C° 0 mm 3 mps 760 mmHg 66%
    08:00 +20°C° 0 mm 3 mps 761 mmHg 61%
    09:00 +21°C° 0 mm 3 mps 761 mmHg 56%
    10:00 +24°C° 0 mm 3 mps 761 mmHg 51%
    11:00 +25°C° 0 mm 4 mps 761 mmHg 49%
    12:00 +25°C° 0 mm 4 mps 761 mmHg 46%
    13:00 +26°C° 0 mm 4 mps 761 mmHg 44%
    14:00 +27°C° 0 mm 4 mps 761 mmHg 44%
    15:00 +27°C° 0 mm 4 mps 761 mmHg 44%
    16:00 +27°C° 0 mm 4 mps 760 mmHg 45%
    17:00 +25°C° 0 mm 4 mps 761 mmHg 51%
    18:00 +23°C° 0 mm 4 mps 761 mmHg 57%
    19:00 +22°C° 0 mm 4 mps 761 mmHg 62%
    20:00 +21°C° 0 mm 4 mps 762 mmHg 65%
    21:00 +20°C° 0 mm 3 mps 762 mmHg 67%
    22:00 +20°C° 0 mm 2 mps 763 mmHg 70%
    23:00 +20°C° 0 mm 2 mps 763 mmHg 71%

    Day after tomorrow, 26 April, Friday

    Time Temperature Precipitation Wind Pressure Humidity
    00:00 +19°C° 0 mm 2 mps 763 mmHg 72%
    01:00 +20°C° 0 mm 1 mps 763 mmHg 73%
    02:00 +19°C° 0 mm 2 mps 762 mmHg 74%
    03:00 +18°C° 0 mm 2 mps 762 mmHg 76%
    04:00 +18°C° 0 mm 2 mps 762 mmHg 77%
    05:00 +18°C° 0 mm 2 mps 762 mmHg 75%
    06:00 +19°C° 0 mm 1 mps 763 mmHg 74%
    07:00 +20°C° 0 mm 1 mps 763 mmHg 72%
    08:00 +21°C° 0 mm 1 mps 763 mmHg 65%
    09:00 +23°C° 0 mm 2 mps 764 mmHg 58%
    10:00 +24°C° 0 mm 2 mps 764 mmHg 51%
    11:00 +25°C° 0 mm 3 mps 764 mmHg 48%
    12:00 +27°C° 0 mm 4 mps 764 mmHg 44%
    13:00 +28°C° 0 mm 5 mps 764 mmHg 41%
    14:00 +28°C° 0 mm 6 mps 764 mmHg 42%
    15:00 +27°C° 0 mm 6 mps 764 mmHg 42%
    16:00 +27°C° 0 mm 7 mps 764 mmHg 43%
    17:00 +26°C° 0 mm 7 mps 764 mmHg 44%
    18:00 +24°C° 0 mm 7 mps 764 mmHg 44%
    19:00 +23°C° 0 mm 7 mps 764 mmHg 45%
    20:00 +22°C° 0 mm 7 mps 765 mmHg 47%
    21:00 +21°C° 0 mm 7 mps 765 mmHg 48%
    22:00 +20°C° 0 mm 7 mps 766 mmHg 50%
    23:00 +20°C° 0 mm 7 mps 765 mmHg 50%

    27 April, Saturday

    Time Temperature Precipitation Wind Pressure Humidity
    00:00 +18°C° 0 mm 7 mps 765 mmHg 50%
    01:00 +18°C° 0 mm 8 mps 765 mmHg 51%
    02:00 +17°C° 0 mm 7 mps 765 mmHg 52%
    03:00 +17°C° 0 mm 7 mps 765 mmHg 54%
    04:00 +16°C° 0 mm 6 mps 765 mmHg 56%
    05:00 +17°C° 0 mm 7 mps 765 mmHg 54%
    06:00 +17°C° 0 mm 7 mps 765 mmHg 52%
    07:00 +17°C° 0 mm 8 mps 765 mmHg 50%
    08:00 +18°C° 0 mm 8 mps 766 mmHg 45%
    09:00 +20°C° 0 mm 8 mps 766 mmHg 40%
    10:00 +22°C° 0 mm 8 mps 766 mmHg 35%
    11:00 +23°C° 0 mm 8 mps 766 mmHg 33%
    12:00 +24°C° 0 mm 8 mps 766 mmHg 31%
    13:00 +26°C° 0 mm 8 mps 765 mmHg 29%
    14:00 +24°C° 0 mm 8 mps 765 mmHg 29%
    15:00 +24°C° 0 mm 9 mps 765 mmHg 29%
    16:00 +24°C° 0 mm 9 mps 765 mmHg 30%
    17:00 +22°C° 0 mm 8 mps 765 mmHg 31%
    18:00 +21°C° 0 mm 8 mps 765 mmHg 33%
    19:00 +20°C° 0 mm 7 mps 765 mmHg 35%
    20:00 +18°C° 0 mm 7 mps 766 mmHg 39%
    21:00 +17°C° 0 mm 7 mps 766 mmHg 42%
    22:00 +16°C° 0 mm 7 mps 767 mmHg 45%
    23:00 +16°C° 0 mm 6 mps 767 mmHg 49%

    28 April, Sunday

    Time Temperature Precipitation Wind Pressure Humidity
    00:00 +15°C° 0 mm 6 mps 766 mmHg 52%
    01:00 +15°C° 0 mm 5 mps 766 mmHg 56%
    02:00 +14°C° 0 mm 5 mps 765 mmHg 57%
    03:00 +14°C° 0 mm 4 mps 765 mmHg 59%
    04:00 +14°C° 0 mm 4 mps 765 mmHg 60%
    05:00 +14°C° 0 mm 4 mps 765 mmHg 58%
    06:00 +14°C° 0 mm 4 mps 765 mmHg 56%
    07:00 +15°C° 0 mm 5 mps 765 mmHg 54%
    08:00 +16°C° 0 mm 5 mps 765 mmHg 51%
    09:00 +17°C° 0 mm 5 mps 765 mmHg 48%
    10:00 +20°C° 0 mm 5 mps 765 mmHg 45%
    11:00 +21°C° 0 mm 5 mps 764 mmHg 41%
    12:00 +22°C° 0 mm 4 mps 764 mmHg 37%
    13:00 +24°C° 0 mm 3 mps 764 mmHg 33%
    14:00 +25°C° 0 mm 3 mps 763 mmHg 32%
    15:00 +25°C° 0 mm 3 mps 763 mmHg 31%
    16:00 +26°C° 0 mm 4 mps 762 mmHg 31%
    17:00 +25°C° 0 mm 4 mps 762 mmHg 36%
    18:00 +22°C° 0 mm 4 mps 762 mmHg 42%
    19:00 +21°C° 0 mm 5 mps 763 mmHg 47%
    20:00 +21°C° 0 mm 3 mps 763 mmHg 48%
    21:00 +20°C° 0 mm 2 mps 763 mmHg 49%
    22:00 +20°C° 0 mm 1 mps 764 mmHg 50%
    23:00 +20°C° 0 mm 1 mps 764 mmHg 52%

    29 April, Monday

    Time Temperature Precipitation Wind Pressure Humidity
    00:00 +20°C° 0 mm 1 mps 764 mmHg 55%
    01:00 +18°C° 0 mm 2 mps 764 mmHg 57%
    02:00 +18°C° 0 mm 2 mps 763 mmHg 59%
    03:00 +18°C° 0 mm 2 mps 763 mmHg 61%
    04:00 +17°C° 0 mm 2 mps 763 mmHg 63%
    05:00 +18°C° 0 mm 2 mps 763 mmHg 62%
    06:00 +18°C° 0 mm 2 mps 763 mmHg 61%
    07:00 +18°C° 0 mm 2 mps 763 mmHg 60%
    08:00 +19°C° 0 mm 2 mps 763 mmHg 54%
    09:00 +20°C° 0 mm 2 mps 763 mmHg 49%
    10:00 +22°C° 0 mm 1 mps 763 mmHg 44%
    11:00 +24°C° 0 mm 2 mps 762 mmHg 41%
    12:00 +25°C° 0 mm 2 mps 762 mmHg 37%
    13:00 +26°C° 0 mm 3 mps 761 mmHg 34%
    14:00 +26°C° 0 mm 4 mps 761 mmHg 35%
    15:00 +26°C° 0 mm 5 mps 760 mmHg 36%
    16:00 +26°C° 0 mm 7 mps 760 mmHg 37%
    17:00 +24°C° 0 mm 6 mps 760 mmHg 40%
    18:00 +23°C° 0 mm 6 mps 760 mmHg 43%
    19:00 +22°C° 0 mm 6 mps 760 mmHg 45%
    20:00 +21°C° 0 mm 5 mps 761 mmHg 50%
    21:00 +20°C° 0 mm 5 mps 761 mmHg 55%
    22:00 +19°C° 0 mm 4 mps 762 mmHg 60%
    23:00 +19°C° 0 mm 4 mps 762 mmHg 62%
    Show more